User: anonymous   Login
Location: Unspecified
(0.0000°N, 0.0000°E)
Time: 02:56:02
(UTC+00:00)
Language:

GONETS M03 - Orbit

View from above orbital plane
View from above orbital plane
View from above satellite
View from above satellite

Ground track
Ground track

The orbit data is extracted from the following two-line orbital elements,

1 38734U 12041B   18322.17981407 -.00000002  00000-0 -86325-4 0  9998
2 38734  82.4772 358.3278 0015800   3.5599 356.5587 12.44799850286338
Epoch (UTC): 18 November 2018 04:18:55
Eccentricity: 0.0015800
inclination: 82.4772°
perigee height: 1474 km
apogee height: 1499 km
right ascension of ascending node: 358.3278°
argument of perigee: 3.5599°
revolutions per day: 12.44799850
mean anomaly at epoch: 356.5587°
orbit number at epoch: 28633

The dashed part of the orbit path shows where the satellite is in the earth's shadow,  

DLR